Location: ?????
(55.6500°N, 37.2500°E)
Time: 03:48:36
(UTC+00:00)

NOSS 3-2 (C) - Pass Details

Date: 19 May 2025
Orbit: 686 x 1523 km, 63.4° (Epoch: 04 June)

Event Time Altitude Azimuth Distance (km) Brightness Sun altitude
Rises 22:57:52 0° 309° (NW) 3,773 6.8 -12.0°
Reaches altitude 10° 23:00:17 10° 307° (NW) 2,929 6.2 -11.8°
Maximum altitude 23:07:17 64° 228° (SW) 1,372 4.0 -11.5°
Drops below altitude 10° 23:15:43 10° 150° (SSE) 3,501 6.1 -11.0°
Sets 23:18:52 0° 148° (SSE) 4,552 6.7 -10.8°
